THORAD AGENA D DEB, 9666

Orbit data source: Space-Track

THORAD AGENA D DEB, 9666 is space debris in SSO originally from a launch on Wed, 08 Apr 1970 UTC launched from the Air Force Western Test Range (AFWTR). Debris objects in space refer to the collection of defunct objects orbiting the Earth. Examples of debris include non-operational satellites, rocket bodies, and fragments generated from explosions, collisions, or faulty payload assembly.

Loading next visibility...
Identifier
9666, 1970-025NK
Orbit
SSO
Country
Flag of USUS
Related business
Manufacturer
Unknown
Mission
Spacecraft
Bus & Motor
Unknown
Mass
Unknown
Launch date (UTC)
1970-04-08 (56 years ago)
Launch vehicle
Unknown
Launch site
Air Force Western Test Range (AFWTR)
Object type
Payload
Rocket body
Debris
Shape & HBR
Unknown shape, 0.1 m
Radar Cross Section
Small (<0.1 m²)

Expand to show TLE details & history
Last TLE update: 7 hours ago

TLE from 7 hours ago
0 THORAD AGENA D DEB
1 09666U 70025NK  25299.88077983  .00002114  00000-0  24228-2 0  9996
2 09666  99.2700 267.7466 0109498 192.1934 196.2668 13.68257557720954
Epoch: 2025-10-26T21:08Z
TLE epoch observation values (Epoch: 2025-10-26T21:08:19.377Z)
Latitude
27.7548°
Longitude
-89.72674°
Altitude
1,086.861 km
Speed
7.273 km/s
True Right ascension
17h 31m 22s
True Declination
27° 37' 10"
Sunlit
Object was in daylight at epoch
Visualization orbit readout
Latitude
Unknown
Longitude
Unknown
Altitude
Unknown
Speed
Unknown
Apparent Right ascension
Unknown
Apparent Declination
Unknown
Sunlit
N/A
Visualization observer readout
Local Sidereal Time
23:36:36
Azimuth
Unknown
Elevation
Unknown
Doppler factor
Unknown
Orbital elements
Apogee altitude
1,083.911 km
Perigee altitude
922.265 km
Semi-major axis
7,381.225 km
Eccentricity
0.01095
Inclination
99.27°
RAAN
267.7466°
Arg. of periapsis
192.1934°
True anomaly
195.91989°
Mean anomaly
196.2668°
Eccentric anomaly
196.09289°
Mean motion
3.42256 °/min
Orbital period
105.18 mins
BSTAR
0.0024228

Documentation

Showing up to 5 results
|